Flag for Denmark Weather past 2 weeks in Kolding, Denmark

Now
64 °F

Clear.


Feels Like: 64 °F
Forecast: 58 / 80 °F
Wind: 5 mph from Northeast

Location: Skrydstrup

Current Time: Jul 24, 2014 at 1:04:31 AM

Latest Report: Jul 24, 2014 at 12:20 AM


Visibility: 10 mi

Pressure: 30.18 "Hg

Humidity: 78%

Dew point: 57 °F

Location of KoldingLocation

Historic Weather in Kolding — Graph

°F

Kolding temperature yesterday

Maximum temperature yesterday: 82 °F (at 3:50 PM)
Minimum temperature yesterday: 57 °F (at 4:50 AM)
Average temperature yesterday: 69 °F

Past Weeks' High & Low Weather Summary

 TemperatureHumidityPressure
High84 °F (Jul 9, 3:20 PM)100% (Jul 12, 5:50 AM)30.24 "Hg (Jul 12, 5:50 AM)
Low46 °F (Jul 17, 5:20 AM)32% (Jul 22, 1:20 PM)29.53 "Hg (Jul 14, 1:20 AM)
Average67 °F73%29.98 "Hg
* Reported Jul 8 11:20 PM — Jul 23 11:50 PM, Kolding, Weather by CustomWeather, © 2014

Note: Actual official high and low records may vary slightly from our data, if they occured in-between our weather recording intervals... More about our weather records

Advertising

Kolding weather history for previous 24 hours

 ConditionsComfort  
Time TempWeatherWind HumidityBarometerVisibility
11:50 PM
Jul 23
66 °FClear.3 mph73%30.18 "Hg10 mi
11:20 PM66 °FClear.5 mph73%30.18 "Hg10 mi
10:50 PM66 °FClear.5 mph73%30.18 "Hg10 mi
10:20 PM66 °FSunny.5 mph73%30.18 "Hg10 mi
9:50 PM68 °FSunny.6 mph69%30.18 "Hg10 mi
9:20 PM72 °FSunny.3 mph61%30.18 "Hg10 mi
8:50 PM73 °FPassing clouds.6 mph53%30.15 "HgN/A
8:20 PM75 °FSunny.6 mph44%30.18 "Hg10 mi
7:50 PM77 °FPassing clouds.7 mph39%30.18 "HgN/A
7:20 PM77 °FPassing clouds.9 mph39%30.18 "HgN/A
6:50 PM77 °FPassing clouds.10 mph42%30.18 "HgN/A
6:20 PM79 °FPassing clouds.9 mph42%30.18 "HgN/A
5:50 PM79 °FPassing clouds.12 mph45%30.18 "HgN/A
5:20 PM81 °FPassing clouds.9 mph42%30.18 "HgN/A
4:50 PM81 °FPassing clouds.9 mph42%30.18 "HgN/A
4:20 PM82 °FPassing clouds.9 mph40%30.18 "HgN/A
3:50 PM82 °FPassing clouds.9 mph40%30.18 "HgN/A
3:20 PM81 °FPassing clouds.10 mph42%30.18 "HgN/A
6:20 AM59 °FSunny.3 mph94%30.24 "Hg10 mi
5:50 AM59 °FFog.2 mph94%30.24 "HgN/A
5:20 AM57 °FFog.3 mph100%30.24 "HgN/A
4:50 AM57 °FFog.No wind94%30.24 "HgN/A
4:20 AM59 °FClear.2 mph94%30.24 "Hg10 mi
3:50 AM59 °FClear.5 mph94%30.24 "Hg10 mi
3:20 AM59 °FFog.1 mph94%30.24 "HgN/A
2:50 AM61 °FClear.3 mph94%30.24 "Hg10 mi
2:20 AM61 °FClear.6 mph94%30.24 "Hg10 mi
1:50 AM63 °FClear.3 mph83%30.24 "Hg10 mi
Weather by CustomWeather, © 2014

See weather overviewHow to use our weather pages